TimeMST,TemperatureF,Dew PointF,Humidity,Sea Level PressureIn,VisibilityMPH,Wind Direction,Wind SpeedMPH,Gust SpeedMPH,PrecipitationIn,Events,Conditions,WindDirDegrees,DateUTC
12:53 AM,12.0,3.9,70,30.38,10.0,North,5.8,-,N/A,,Partly Cloudy,350,2013-12-29 07:53:00
1:53 AM,10.9,3.9,73,30.39,10.0,NNW,4.6,-,N/A,,Clear,340,2013-12-29 08:53:00
2:53 AM,10.0,3.0,73,30.41,10.0,WSW,3.5,-,N/A,,Clear,240,2013-12-29 09:53:00
3:53 AM,10.0,3.9,76,30.40,10.0,West,3.5,-,N/A,,Clear,260,2013-12-29 10:53:00
4:53 AM,8.1,3.0,80,30.41,10.0,West,4.6,-,N/A,,Clear,270,2013-12-29 11:53:00
5:53 AM,8.1,3.9,83,30.40,10.0,West,4.6,-,N/A,,Clear,270,2013-12-29 12:53:00
6:53 AM,9.0,3.0,77,30.40,10.0,WNW,3.5,-,N/A,,Clear,290,2013-12-29 13:53:00
7:53 AM,9.0,3.9,80,30.39,10.0,Calm,Calm,-,N/A,,Clear,0,2013-12-29 14:53:00
8:53 AM,14.0,7.0,74,30.38,10.0,North,3.5,-,N/A,,Clear,360,2013-12-29 15:53:00
9:53 AM,19.0,9.0,65,30.37,10.0,Calm,Calm,-,N/A,,Clear,0,2013-12-29 16:53:00
10:53 AM,23.0,10.9,60,30.32,10.0,Calm,Calm,-,N/A,,Clear,0,2013-12-29 17:53:00
11:53 AM,27.0,12.9,56,30.28,10.0,West,3.5,-,N/A,,Clear,260,2013-12-29 18:53:00
12:53 PM,32.0,12.9,45,30.22,10.0,Calm,Calm,-,N/A,,Clear,0,2013-12-29 19:53:00
1:53 PM,36.0,14.0,41,30.15,10.0,SW,3.5,-,N/A,,Clear,230,2013-12-29 20:53:00
2:53 PM,37.0,12.0,36,30.13,10.0,West,8.1,-,N/A,,Clear,280,2013-12-29 21:53:00
3:53 PM,35.1,12.0,39,30.11,10.0,West,10.4,-,N/A,,Clear,270,2013-12-29 22:53:00
4:53 PM,32.0,12.9,45,30.09,10.0,WSW,10.4,-,N/A,,Scattered Clouds,240,2013-12-29 23:53:00
5:53 PM,30.9,14.0,50,30.06,10.0,WSW,10.4,-,N/A,,Clear,240,2013-12-30 00:53:00
6:53 PM,34.0,14.0,44,30.02,10.0,SW,11.5,-,N/A,,Overcast,230,2013-12-30 01:53:00
7:53 PM,35.1,14.0,42,30.02,10.0,West,8.1,-,N/A,,Overcast,280,2013-12-30 02:53:00
8:53 PM,35.1,12.9,40,29.99,10.0,WSW,4.6,-,N/A,,Overcast,240,2013-12-30 03:53:00
9:53 PM,36.0,14.0,41,29.98,10.0,West,12.7,-,N/A,,Overcast,280,2013-12-30 04:53:00
10:53 PM,33.1,15.1,48,29.99,10.0,West,5.8,-,N/A,,Scattered Clouds,280,2013-12-30 05:53:00
11:53 PM,28.9,14.0,54,30.01,10.0,NNW,6.9,-,N/A,,Partly Cloudy,330,2013-12-30 06:53:00